When you browse on this site, cookies collect data to enhance your experience and personalize the content and advertising you see.
Visit our Privacy Policy to learn more. By continuing to use the site, you agree to this use of cookies and data.
  • In United Kingdom
  • List of Countries
  • For 7 days
  • Water Temperature
  • Weather Map
  • Weather Widgets
  • user-avatar
    Login

    Hourly Weather Solden

    Today, 2 June, Tuesday

    Time Temperature Precipitation Wind Pressure Humidity
    00:00 +2°C° 0 mm 1 mps 582 mmHg 90%
    01:00 +2°C° 0 mm 1 mps 582 mmHg 90%
    02:00 +2°C° 0 mm 1 mps 582 mmHg 89%
    03:00 +2°C° 0 mm 1 mps 582 mmHg 87%
    04:00 +1°C° 0 mm 1 mps 581 mmHg 86%
    05:00 +3°C° 0 mm 1 mps 582 mmHg 81%
    06:00 +5°C° 0 mm 1 mps 583 mmHg 76%
    07:00 +7°C° 0 mm 1 mps 584 mmHg 71%
    08:00 +9°C° 0 mm 1 mps 585 mmHg 62%
    09:00 +11°C° 0 mm 1 mps 586 mmHg 53%
    10:00 +13°C° 0 mm 1 mps 586 mmHg 43%
    11:00 +13°C° 0 mm 1 mps 586 mmHg 41%
    12:00 +14°C° 0 mm 2 mps 586 mmHg 40%
    13:00 +15°C° 0 mm 2 mps 586 mmHg 38%
    14:00 +14°C° 0.3 mm 2 mps 586 mmHg 40%
    15:00 +14°C° 0.3 mm 2 mps 585 mmHg 43%
    16:00 +14°C° 0.3 mm 2 mps 585 mmHg 45%
    17:00 +12°C° 0.3 mm 2 mps 584 mmHg 55%
    18:00 +11°C° 0.3 mm 1 mps 583 mmHg 64%
    19:00 +9°C° 0.3 mm 1 mps 582 mmHg 74%
    20:00 +7°C° 0.3 mm 1 mps 582 mmHg 76%
    21:00 +5°C° 0.3 mm 1 mps 581 mmHg 79%
    22:00 +3°C° 0.3 mm 1 mps 580 mmHg 82%
    23:00 +3°C° 0 mm 1 mps 580 mmHg 82%

    Tomorrow, 3 June, Wednesday

    Time Temperature Precipitation Wind Pressure Humidity
    00:00 +2°C° 0 mm 1 mps 579 mmHg 82%
    01:00 +2°C° 0 mm 1 mps 579 mmHg 82%
    02:00 +2°C° 0 mm 1 mps 579 mmHg 82%
    03:00 +2°C° 0 mm 1 mps 578 mmHg 81%
    04:00 +1°C° 0 mm 1 mps 578 mmHg 80%
    05:00 +3°C° 0 mm 1 mps 579 mmHg 76%
    06:00 +4°C° 0 mm 0 mps 579 mmHg 72%
    07:00 +6°C° 0 mm 0 mps 580 mmHg 68%
    08:00 +8°C° 0 mm 1 mps 581 mmHg 62%
    09:00 +10°C° 0 mm 1 mps 581 mmHg 56%
    10:00 +12°C° 0 mm 1 mps 582 mmHg 50%
    11:00 +12°C° 0.3 mm 2 mps 582 mmHg 52%
    12:00 +12°C° 0.3 mm 2 mps 581 mmHg 54%
    13:00 +12°C° 0.3 mm 2 mps 581 mmHg 56%
    14:00 +12°C° 0.9 mm 2 mps 580 mmHg 62%
    15:00 +10°C° 0.9 mm 2 mps 580 mmHg 69%
    16:00 +9°C° 0.9 mm 2 mps 579 mmHg 75%
    17:00 +8°C° 0.8 mm 2 mps 578 mmHg 80%
    18:00 +8°C° 0.8 mm 1 mps 578 mmHg 86%
    19:00 +7°C° 0.8 mm 1 mps 577 mmHg 91%
    20:00 +6°C° 0.3 mm 1 mps 577 mmHg 92%
    21:00 +5°C° 0.3 mm 1 mps 576 mmHg 94%
    22:00 +4°C° 0.3 mm 1 mps 576 mmHg 96%
    23:00 +4°C° 0.1 mm 1 mps 576 mmHg 96%

    Day after tomorrow, 4 June, Thursday

    Time Temperature Precipitation Wind Pressure Humidity
    00:00 +4°C° 0.1 mm 1 mps 576 mmHg 96%
    01:00 +5°C° 0.1 mm 1 mps 575 mmHg 97%
    02:00 +5°C° 0.4 mm 1 mps 575 mmHg 97%
    03:00 +5°C° 0.4 mm 1 mps 575 mmHg 97%
    04:00 +4°C° 0.4 mm 0 mps 574 mmHg 98%
    05:00 +5°C° 0.9 mm 1 mps 574 mmHg 98%
    06:00 +5°C° 0.9 mm 1 mps 574 mmHg 98%
    07:00 +5°C° 0.9 mm 1 mps 574 mmHg 98%
    08:00 +5°C° 1.2 mm 1 mps 574 mmHg 98%
    09:00 +5°C° 1.2 mm 1 mps 574 mmHg 98%
    10:00 +5°C° 1.2 mm 1 mps 574 mmHg 98%
    11:00 +5°C° 0.8 mm 1 mps 573 mmHg 97%
    12:00 +6°C° 0.8 mm 1 mps 573 mmHg 97%
    13:00 +6°C° 0.8 mm 1 mps 573 mmHg 96%
    14:00 +5°C° 1.6 mm 2 mps 573 mmHg 97%
    15:00 +4°C° 1.6 mm 2 mps 572 mmHg 97%
    16:00 +4°C° 1.6 mm 2 mps 572 mmHg 98%
    17:00 +4°C° 1.4 mm 2 mps 572 mmHg 98%
    18:00 +4°C° 1.4 mm 1 mps 572 mmHg 98%
    19:00 +4°C° 1.4 mm 1 mps 572 mmHg 99%
    20:00 +4°C° 2 mm 1 mps 571 mmHg 99%
    21:00 +4°C° 2 mm 1 mps 571 mmHg 99%
    22:00 +4°C° 2 mm 1 mps 571 mmHg 99%
    23:00 +3°C° 3.8 mm 1 mps 570 mmHg 98%

    5 June, Friday

    Time Temperature Precipitation Wind Pressure Humidity
    00:00 +2°C° 3.8 mm 2 mps 570 mmHg 98%
    01:00 +1°C° 3.8 mm 2 mps 569 mmHg 97%
    02:00 +1°C° 4.3 mm 2 mps 569 mmHg 97%
    03:00 -1°C° 4.3 mm 2 mps 568 mmHg 97%
    04:00 -2°C° 4.3 mm 2 mps 568 mmHg 97%
    05:00 -1°C° 1.4 mm 2 mps 568 mmHg 97%
    06:00 -1°C° 1.4 mm 2 mps 569 mmHg 97%
    07:00 -1°C° 1.4 mm 2 mps 569 mmHg 97%
    08:00 +1°C° 0.8 mm 2 mps 570 mmHg 96%
    09:00 +1°C° 0.8 mm 2 mps 570 mmHg 95%
    10:00 +2°C° 0.8 mm 2 mps 571 mmHg 94%
    11:00 +2°C° 1 mm 2 mps 571 mmHg 93%
    12:00 +2°C° 1 mm 2 mps 571 mmHg 92%
    13:00 +1°C° 1 mm 2 mps 571 mmHg 92%
    14:00 0°C° 0.6 mm 3 mps 572 mmHg 90%
    15:00 0°C° 0.6 mm 3 mps 572 mmHg 88%
    16:00 0°C° 0.6 mm 3 mps 572 mmHg 85%
    17:00 0°C° 0.1 mm 3 mps 572 mmHg 85%
    18:00 -1°C° 0.1 mm 2 mps 572 mmHg 84%
    19:00 -1°C° 0.1 mm 2 mps 573 mmHg 83%
    20:00 -2°C° 0 mm 2 mps 573 mmHg 84%
    21:00 -4°C° 0 mm 2 mps 573 mmHg 85%
    22:00 -5°C° 0 mm 2 mps 573 mmHg 86%
    23:00 -6°C° 0 mm 2 mps 573 mmHg 85%

    6 June, Saturday

    Time Temperature Precipitation Wind Pressure Humidity
    00:00 -6°C° 0 mm 2 mps 573 mmHg 84%
    01:00 -6°C° 0 mm 2 mps 573 mmHg 83%
    02:00 -6°C° 0 mm 2 mps 574 mmHg 83%
    03:00 -6°C° 0 mm 2 mps 574 mmHg 83%
    04:00 -6°C° 0 mm 2 mps 574 mmHg 82%
    05:00 -2°C° 0 mm 1 mps 575 mmHg 77%
    06:00 0°C° 0 mm 1 mps 577 mmHg 71%
    07:00 +2°C° 0 mm 1 mps 578 mmHg 66%
    08:00 +4°C° 0 mm 1 mps 579 mmHg 63%
    09:00 +5°C° 0 mm 1 mps 580 mmHg 60%
    10:00 +7°C° 0 mm 1 mps 580 mmHg 57%
    11:00 +7°C° 0 mm 2 mps 581 mmHg 57%
    12:00 +8°C° 0 mm 2 mps 581 mmHg 56%
    13:00 +8°C° 0 mm 2 mps 581 mmHg 55%
    14:00 +8°C° 0 mm 2 mps 581 mmHg 57%
    15:00 +8°C° 0 mm 2 mps 581 mmHg 60%
    16:00 +8°C° 0 mm 2 mps 581 mmHg 62%
    17:00 +7°C° 0 mm 2 mps 580 mmHg 69%
    18:00 +6°C° 0 mm 2 mps 580 mmHg 75%
    19:00 +5°C° 0 mm 2 mps 579 mmHg 82%
    20:00 +5°C° 0 mm 1 mps 579 mmHg 86%
    21:00 +4°C° 0 mm 1 mps 579 mmHg 89%
    22:00 +2°C° 0 mm 1 mps 579 mmHg 93%
    23:00 +2°C° 0 mm 1 mps 578 mmHg 94%

    7 June, Sunday

    Time Temperature Precipitation Wind Pressure Humidity
    00:00 +2°C° 0 mm 1 mps 578 mmHg 94%
    01:00 +2°C° 0 mm 1 mps 578 mmHg 95%
    02:00 +2°C° 0 mm 1 mps 578 mmHg 94%
    03:00 +2°C° 0 mm 1 mps 577 mmHg 94%
    04:00 +2°C° 0 mm 1 mps 577 mmHg 93%
    05:00 +3°C° 0 mm 1 mps 578 mmHg 91%
    06:00 +3°C° 0 mm 1 mps 578 mmHg 89%
    07:00 +4°C° 0 mm 1 mps 578 mmHg 87%
    08:00 +5°C° 0 mm 1 mps 579 mmHg 88%
    09:00 +5°C° 0 mm 1 mps 579 mmHg 88%
    10:00 +5°C° 0 mm 1 mps 579 mmHg 88%
    11:00 +6°C° 0.1 mm 1 mps 580 mmHg 87%
    12:00 +6°C° 0.1 mm 1 mps 580 mmHg 86%
    13:00 +6°C° 0.1 mm 2 mps 580 mmHg 85%
    14:00 +7°C° 0.2 mm 1 mps 580 mmHg 84%
    15:00 +8°C° 0.2 mm 1 mps 581 mmHg 83%
    16:00 +8°C° 0.2 mm 1 mps 581 mmHg 83%
    17:00 +7°C° 0.2 mm 1 mps 581 mmHg 87%
    18:00 +7°C° 0.2 mm 1 mps 580 mmHg 90%
    19:00 +6°C° 0.2 mm 1 mps 580 mmHg 94%
    20:00 +4°C° 0.1 mm 0 mps 580 mmHg 95%
    21:00 +4°C° 0.1 mm 0 mps 580 mmHg 95%
    22:00 +3°C° 0.1 mm 0 mps 580 mmHg 96%
    23:00 +3°C° 0.1 mm 0 mps 580 mmHg 96%
    Show more